Chanute, KS

1:04 PM CDT on May 27, 2017 (GMT -0500)
Chanute Martin Johnson

Weather History for KCNU - January, 2014

Change the Weather History Date:

Friday, January 24, 2014

  Actual Average Record
Temperature  
Mean Temperature 22 °F 33 °F  
Max Temperature 42 °F 43 °F 75 °F (1950)
Min Temperature 2 °F 23 °F -6 °F (1963)
Degree Days  
Heating Degree Days 43 32  
Month to date heating degree days 850 788  
Since 1 July heating degree days 2803 2581  
Cooling Degree Days 0 0  
Month to date cooling degree days 0 0  
Year to date cooling degree days 0 0  
Moisture  
Dew Point 4 °F    
Average Humidity 50    
Maximum Humidity 76    
Minimum Humidity 24    
Precipitation  
Precipitation 0.00 in 0.04 in 0.85 in (1921)
Month to date precipitation 0.11 0.94  
Year to date precipitation 0.11 0.94  
Sea Level Pressure  
Sea Level Pressure 30.33 in    
Wind  
Wind Speed 17 mph (SSW)    
Max Wind Speed 31 mph    
Max Gust Speed 38 mph    
Visibility 10 miles    
Events      
T = Trace of Precipitation, MM = Missing Value Source: NWS Daily Summary

Daily Weather History Graph

Daily Weather History Graph

Search for Another Location

Airport or City:

Trip Planner

Search our weather history database for the weather conditions in past years. The results will help you decide how hot, cold, wet, or windy it might be!

Date:

Astronomy

Jan. 24, 2014 Rise Set
Actual Time 7:31 AM CST 5:36 PM CST
Civil Twilight 7:03 AM CST 6:05 PM CST
Nautical Twilight 6:31 AM CST 6:36 PM CST
Astronomical Twilight 6:00 AM CST 7:07 PM CST
Moon 1:01 AM CST (1/24) 11:55 AM CST (1/24)
Length of Visible Light 11h 01m
Length of Day
10h 05m
Last Quarter, 44% of the Moon is Illuminated
Jan 24
Last Quarter
Jan 30
New
Feb 6
First Quarter
Feb 14
Full
Feb 22
Last Quarter

Hourly Weather History & Observations

Time (CST) Temp. Windchill Dew Point Humidity Pressure Visibility Wind Dir Wind Speed Gust Speed Precip Events Conditions
12:52 AM 5.0 °F -6.9 °F -4.0 °F 66% 30.76 in 10.0 mi SSW 6.9 mph - N/A   Clear
1:52 AM 3.9 °F -8.2 °F -4.0 °F 70% 30.72 in 10.0 mi SSW 6.9 mph - N/A   Clear
2:52 AM 3.9 °F -9.4 °F -4.0 °F 70% 30.70 in 10.0 mi SSW 8.1 mph - N/A   Clear
3:52 AM 5.0 °F -10.0 °F -2.9 °F 70% 30.66 in 10.0 mi SSW 10.4 mph - N/A   Clear
4:52 AM 5.0 °F -10.8 °F -2.9 °F 70% 30.63 in 10.0 mi SSW 11.5 mph - N/A   Clear
5:52 AM 6.1 °F -8.7 °F -2.0 °F 69% 30.61 in 10.0 mi SSW 10.4 mph - N/A   Clear
6:52 AM 6.1 °F -9.5 °F -2.0 °F 69% 30.59 in 10.0 mi SSW 11.5 mph - N/A   Clear
7:52 AM 7.0 °F -11.6 °F -0.9 °F 70% 30.54 in 10.0 mi SSW 17.3 mph - N/A   Clear
8:52 AM 12.0 °F -5.6 °F -0.0 °F 59% 30.52 in 10.0 mi SSW 18.4 mph - N/A   Clear
9:52 AM 18.0 °F 0.9 °F 1.0 °F 48% 30.48 in 10.0 mi SSW 21.9 mph - N/A   Unknown
10:52 AM 24.1 °F 8.0 °F -0.0 °F 35% 30.43 in 10.0 mi SSW 25.3 mph 29.9 mph N/A   Clear
11:52 AM 28.0 °F 13.0 °F -2.0 °F 27% 30.35 in 10.0 mi SSW 26.5 mph 33.4 mph N/A   Clear
12:52 PM 34.0 °F 21.5 °F 1.0 °F 25% 30.27 in 10.0 mi SSW 24.2 mph 35.7 mph N/A   Clear
1:52 PM 37.0 °F 25.4 °F 5.0 °F 26% 30.19 in 10.0 mi SSW 25.3 mph 34.5 mph N/A   Clear
2:52 PM 39.9 °F 29.0 °F 7.0 °F 26% 30.14 in 10.0 mi SW 26.5 mph 36.8 mph N/A   Clear
3:52 PM 42.1 °F 32.8 °F 9.0 °F 26% 30.11 in 10.0 mi SW 21.9 mph 31.1 mph N/A   Clear
4:52 PM 41.0 °F 31.1 °F 10.0 °F 28% 30.11 in 10.0 mi SW 23.0 mph 29.9 mph N/A   Clear
5:52 PM 39.9 °F 31.1 °F 10.9 °F 31% 30.08 in 10.0 mi SSW 17.3 mph - N/A   Scattered Clouds
6:52 PM 39.9 °F 31.4 °F 12.0 °F 32% 30.07 in 10.0 mi SSW 16.1 mph - N/A   Clear
7:52 PM 39.0 °F 29.6 °F 12.9 °F 34% 30.05 in 10.0 mi SSW 18.4 mph 25.3 mph N/A   Partly Cloudy
8:52 PM 37.0 °F 27.4 °F 14.0 °F 39% 30.01 in 10.0 mi SSW 17.3 mph 24.2 mph N/A   Partly Cloudy
9:52 PM 36.0 °F 26.3 °F 14.0 °F 41% 29.98 in 10.0 mi SSW 16.1 mph - N/A   Clear
10:52 PM 36.0 °F 26.0 °F 15.1 °F 43% 29.94 in 10.0 mi SSW 17.3 mph - N/A   Mostly Cloudy
11:52 PM 37.9 °F 29.6 °F 15.1 °F 39% 29.92 in 10.0 mi SW 13.8 mph - N/A   Overcast